This is the latest recevied weather packets stored in our database for station/object WD7OO. If no packets are shown the sender has not sent any weather packets the latest 10 day(s).
| Time | Temp. | Humidity | Pressure | Rain* | Wind** | Luminosity | Snow |
|---|---|---|---|---|---|---|---|
| 1788551026 | 31.11° C | 68% | 1014.3 hPa | 0 mm | - | 531 W/m² | - |
| 1788550722 | 30.56° C | 74% | 1014.4 hPa | 0 mm | - | 540 W/m² | - |
| 1788550417 | 30.56° C | 74% | 1014.2 hPa | 0 mm | - | 546 W/m² | - |
| 1788550112 | 30° C | 73% | 1014.2 hPa | 0 mm | - | 569 W/m² | - |
| 1788549807 | 29.44° C | 75% | 1014.2 hPa | 0 mm | - | 580 W/m² | - |
| 1788549505 | 30° C | 77% | 1014 hPa | 0 mm | - | 593 W/m² | - |
| 1788549201 | 28.89° C | 79% | 1013.7 hPa | 0 mm | - | 618 W/m² | - |
| 1788548897 | 28.89° C | 80% | 1013.6 hPa | 0 mm | - | 256 W/m² | - |
| 1788548592 | 28.89° C | 80% | 1013.6 hPa | 0 mm | - | 670 W/m² | - |
| 1788548289 | 28.89° C | 80% | 1013.8 hPa | 0 mm | - | 708 W/m² | - |
| 1788547984 | 27.78° C | 84% | 1013.7 hPa | 0 mm | - | 354 W/m² | - |
| 1788547683 | 27.78° C | 83% | 1013.5 hPa | 0 mm | - | 294 W/m² | - |
| 1788547378 | 26.67° C | 84% | 1013.9 hPa | 0 mm | - | 402 W/m² | - |
| 1788547074 | 27.22° C | 87% | 1014.1 hPa | 0 mm | - | 265 W/m² | - |
| 1788546768 | 27.22° C | 86% | 1014.6 hPa | 0 mm | - | 336 W/m² | - |
| 1788546464 | 26.67° C | 87% | 1014.9 hPa | 0 mm | - | 333 W/m² | - |
| 1788546164 | 26.11° C | 88% | 1015.2 hPa | 0 mm | - | 312 W/m² | - |
| 1788545854 | 26.11° C | 90% | 1015.4 hPa | 0 mm | - | 355 W/m² | - |
| 1788545554 | 25° C | 91% | 1015.3 hPa | 0 mm | - | 898 W/m² | - |
| 1788545249 | 25° C | 94% | 1015.5 hPa | 0 mm | - | 385 W/m² | - |
| 1788544945 | 24.44° C | 95% | 1015.6 hPa | 0 mm | - | 252 W/m² | - |
| 1788544644 | 25° C | 96% | 1015.7 hPa | 0 mm | - | 200 W/m² | - |
| 1788544342 | 25° C | 95% | 1016.3 hPa | 0 mm | - | 205 W/m² | - |
| 1788544037 | 25° C | 96% | 1016.8 hPa | 0 mm | - | 265 W/m² | - |
| 1788543733 | 24.44° C | 99% | 1017 hPa | 0 mm | - | 923 W/m² | - |
* Rain latest hour (hover to see other rain measurements)
** Current wind speed in m/s (hover to see current wind gust speed)